TimeEST,TemperatureF,Dew PointF,Humidity,Sea Level PressureIn,VisibilityMPH,Wind Direction,Wind SpeedMPH,Gust SpeedMPH,PrecipitationIn,Events,Conditions,WindDirDegrees,DateUTC
12:15 AM,17.6,3.2,53,29.66,10.0,WNW,24.2,35.7,N/A,,Overcast,300,2013-02-18 05:15:00
12:35 AM,17.6,3.2,53,29.66,4.0,WNW,26.5,40.3,N/A,Snow,Light Snow,300,2013-02-18 05:35:00
12:55 AM,17.6,3.2,53,29.67,7.0,WNW,25.3,36.8,N/A,Snow,Light Snow,300,2013-02-18 05:55:00
1:15 AM,17.6,3.2,53,29.68,9.0,WNW,21.9,32.2,N/A,,Overcast,300,2013-02-18 06:15:00
1:35 AM,15.8,1.4,53,29.68,10.0,WNW,21.9,32.2,N/A,,Overcast,300,2013-02-18 06:35:00
1:55 AM,15.8,3.2,58,29.69,6.0,WNW,21.9,36.8,N/A,Snow,Light Snow,300,2013-02-18 06:55:00
2:15 AM,15.8,1.4,53,29.70,9.0,WNW,28.8,35.7,N/A,,Overcast,300,2013-02-18 07:15:00
2:35 AM,15.8,1.4,53,29.71,10.0,WNW,19.6,28.8,N/A,,Overcast,300,2013-02-18 07:35:00
2:55 AM,15.8,1.4,53,29.72,10.0,WNW,21.9,33.4,N/A,,Overcast,300,2013-02-18 07:55:00
3:15 AM,15.8,1.4,53,29.72,8.0,WNW,27.6,35.7,N/A,,Overcast,300,2013-02-18 08:15:00
3:35 AM,15.8,1.4,53,29.73,10.0,NW,20.7,33.4,N/A,,Overcast,310,2013-02-18 08:35:00
3:55 AM,15.8,1.4,53,29.74,10.0,NW,20.7,34.5,N/A,,Overcast,310,2013-02-18 08:55:00
4:15 AM,15.8,1.4,53,29.76,5.0,NW,21.9,38.0,N/A,,Haze,310,2013-02-18 09:15:00
4:35 AM,15.8,1.4,53,29.77,9.0,NW,27.6,36.8,N/A,,Overcast,310,2013-02-18 09:35:00
4:55 AM,15.8,1.4,53,29.78,9.0,WNW,24.2,32.2,N/A,,Overcast,300,2013-02-18 09:55:00
5:15 AM,15.8,1.4,53,29.80,8.0,WNW,24.2,34.5,N/A,,Overcast,300,2013-02-18 10:15:00
5:35 AM,15.8,1.4,53,29.81,10.0,WNW,21.9,32.2,N/A,,Overcast,300,2013-02-18 10:35:00
5:55 AM,15.8,1.4,53,29.82,10.0,WNW,23.0,34.5,N/A,,Overcast,300,2013-02-18 10:55:00
6:15 AM,15.8,1.4,53,29.83,10.0,WNW,21.9,33.4,N/A,,Mostly Cloudy,300,2013-02-18 11:15:00
6:35 AM,15.8,1.4,53,29.84,10.0,NW,25.3,36.8,N/A,,Clear,310,2013-02-18 11:35:00
6:55 AM,15.8,1.4,53,29.86,10.0,WNW,24.2,32.2,N/A,,Clear,300,2013-02-18 11:55:00
7:15 AM,15.8,1.4,53,29.87,10.0,WNW,28.8,39.1,N/A,,Clear,300,2013-02-18 12:15:00
7:35 AM,15.8,1.4,53,29.88,8.0,WNW,26.5,38.0,N/A,,Clear,300,2013-02-18 12:35:00
7:55 AM,15.8,1.4,53,29.90,10.0,WNW,19.6,33.4,N/A,,Clear,300,2013-02-18 12:55:00
8:15 AM,17.6,3.2,53,29.90,9.0,WNW,28.8,34.5,N/A,,Clear,300,2013-02-18 13:15:00
8:35 AM,17.6,3.2,53,29.92,9.0,WNW,25.3,36.8,N/A,,Clear,300,2013-02-18 13:35:00
8:55 AM,19.4,3.2,49,29.93,10.0,WNW,26.5,34.5,N/A,,Clear,300,2013-02-18 13:55:00
9:15 AM,19.4,3.2,49,29.94,9.0,WNW,19.6,34.5,N/A,,Clear,300,2013-02-18 14:15:00
9:35 AM,-9999,-9999,N/A,-9999,-9999.0,North,-9999.0,-,N/A,,Unknown,0,2013-02-18 14:35:00
9:55 AM,21.2,5.0,50,29.94,10.0,WNW,21.9,28.8,N/A,,Unknown,300,2013-02-18 14:55:00
10:15 AM,23.0,3.2,43,29.95,10.0,NW,26.5,31.1,N/A,,Clear,310,2013-02-18 15:15:00
10:35 AM,23.0,3.2,43,29.96,10.0,WNW,17.3,26.5,N/A,,Clear,300,2013-02-18 15:35:00
10:55 AM,24.8,3.2,40,29.97,10.0,WNW,23.0,29.9,N/A,,Clear,300,2013-02-18 15:55:00
11:15 AM,24.8,3.2,40,29.97,10.0,WNW,21.9,28.8,N/A,,Clear,300,2013-02-18 16:15:00
11:35 AM,26.6,5.0,40,29.97,10.0,WNW,17.3,24.2,N/A,,Clear,300,2013-02-18 16:35:00
11:55 AM,26.6,1.4,34,29.97,10.0,WNW,21.9,31.1,N/A,,Clear,290,2013-02-18 16:55:00
12:15 PM,26.6,3.2,37,29.98,10.0,WNW,23.0,29.9,N/A,,Clear,290,2013-02-18 17:15:00
12:35 PM,28.4,3.2,34,29.98,10.0,WNW,20.7,31.1,N/A,,Clear,290,2013-02-18 17:35:00
12:55 PM,28.4,1.4,31,29.98,10.0,WNW,21.9,33.4,N/A,,Clear,300,2013-02-18 17:55:00
1:15 PM,28.4,1.4,31,29.98,10.0,WNW,23.0,34.5,N/A,,Clear,300,2013-02-18 18:15:00
1:35 PM,28.4,1.4,31,29.98,10.0,WNW,25.3,32.2,N/A,,Clear,300,2013-02-18 18:35:00
1:55 PM,28.4,1.4,31,29.99,10.0,NW,20.7,31.1,N/A,,Clear,310,2013-02-18 18:55:00
2:15 PM,30.2,1.4,29,30.00,10.0,WNW,25.3,32.2,N/A,,Clear,290,2013-02-18 19:15:00
2:35 PM,30.2,1.4,29,30.01,10.0,WNW,19.6,31.1,N/A,,Clear,290,2013-02-18 19:35:00
2:55 PM,30.2,1.4,29,30.01,10.0,WNW,18.4,29.9,N/A,,Clear,290,2013-02-18 19:55:00
3:15 PM,30.2,1.4,29,30.01,10.0,WNW,15.0,24.2,N/A,,Clear,290,2013-02-18 20:15:00
3:35 PM,30.2,1.4,29,30.02,10.0,West,18.4,24.2,N/A,,Clear,280,2013-02-18 20:35:00
3:55 PM,28.4,1.4,31,30.03,10.0,West,18.4,24.2,N/A,,Clear,270,2013-02-18 20:55:00
4:15 PM,28.4,1.4,31,30.04,10.0,WNW,16.1,25.3,N/A,,Clear,290,2013-02-18 21:15:00
4:35 PM,28.4,1.4,31,30.05,10.0,West,17.3,21.9,N/A,,Clear,280,2013-02-18 21:35:00
4:55 PM,28.4,1.4,31,30.07,10.0,West,13.8,-,N/A,,Clear,280,2013-02-18 21:55:00
5:15 PM,28.4,1.4,31,30.07,10.0,West,13.8,24.2,N/A,,Clear,270,2013-02-18 22:15:00
5:35 PM,26.6,3.2,37,30.08,10.0,West,12.7,-,N/A,,Clear,270,2013-02-18 22:35:00
5:55 PM,26.6,3.2,37,30.09,10.0,West,13.8,-,N/A,,Clear,270,2013-02-18 22:55:00
6:15 PM,26.6,1.4,34,30.10,10.0,West,12.7,-,N/A,,Clear,280,2013-02-18 23:15:00
6:35 PM,26.6,1.4,34,30.11,10.0,West,15.0,20.7,N/A,,Clear,270,2013-02-18 23:35:00
6:55 PM,26.6,3.2,37,30.12,10.0,West,12.7,-,N/A,,Clear,270,2013-02-18 23:55:00
7:15 PM,26.6,1.4,34,30.12,10.0,West,12.7,-,N/A,,Clear,280,2013-02-19 00:15:00
7:35 PM,26.6,3.2,37,30.13,10.0,West,10.4,-,N/A,,Clear,270,2013-02-19 00:35:00
7:55 PM,26.6,1.4,34,30.13,10.0,West,9.2,-,N/A,,Clear,280,2013-02-19 00:55:00
8:15 PM,26.6,1.4,34,30.14,10.0,West,13.8,-,N/A,,Clear,280,2013-02-19 01:15:00
8:35 PM,26.6,3.2,37,30.14,10.0,West,11.5,-,N/A,,Clear,280,2013-02-19 01:35:00
8:55 PM,24.8,3.2,40,30.15,10.0,West,8.1,-,N/A,,Clear,280,2013-02-19 01:55:00
9:15 PM,24.8,5.0,43,30.16,10.0,West,11.5,-,N/A,,Clear,280,2013-02-19 02:15:00
9:35 PM,26.6,3.2,37,30.15,10.0,West,13.8,18.4,N/A,,Clear,280,2013-02-19 02:35:00
9:55 PM,24.8,5.0,43,30.15,10.0,West,11.5,-,N/A,,Clear,280,2013-02-19 02:55:00
10:15 PM,24.8,3.2,40,30.15,10.0,West,10.4,-,N/A,,Clear,280,2013-02-19 03:15:00
10:35 PM,24.8,5.0,43,30.16,10.0,West,12.7,-,N/A,,Clear,280,2013-02-19 03:35:00
10:55 PM,24.8,5.0,43,30.17,10.0,West,12.7,-,N/A,,Clear,270,2013-02-19 03:55:00
11:15 PM,24.8,6.8,46,30.17,10.0,West,11.5,-,N/A,,Clear,280,2013-02-19 04:15:00
11:35 PM,24.8,6.8,46,30.17,10.0,West,8.1,-,N/A,,Clear,260,2013-02-19 04:35:00
11:55 PM,23.0,6.8,50,30.17,10.0,West,9.2,-,N/A,,Clear,260,2013-02-19 04:55:00